Change the Weather History Date:

Monday, July 15, 2013

  Actual Average (KCKI) Record (KCKI)
Temperature  
Mean Temperature 83 °F -  
Max Temperature 91 °F 92 °F 93 °F (2014)
Min Temperature 75 °F 68 °F 69 °F (2011)
Cooling Degree Days 18    
Growing Degree Days 33 (Base 50)    
Moisture  
Dew Point 74 °F    
Average Humidity 81    
Maximum Humidity 100    
Minimum Humidity 21    
Precipitation  
Precipitation 0.00 in - - ()
Sea Level Pressure  
Sea Level Pressure 30.24 in    
Wind  
Wind Speed - (North)    
Max Wind Speed -    
Max Gust Speed -    
Visibility 9 miles    
Events Thunderstorm    
Averages and records for this station are not official NWS values.
T = Trace of Precipitation, MM = Missing Value Source: NWS Daily Summary

Daily Weather History Graph

Daily Weather History Graph

Search for Another Location

Airport or City:

Trip Planner

Search our weather history database for the weather conditions in past years. The results will help you decide how hot, cold, wet, or windy it might be!

Date:

Astronomy

Jul. 15, 2013 Rise Set
Actual Time 6:21 AM EDT 8:31 PM EDT
Civil Twilight 5:53 AM EDT 8:59 PM EDT
Nautical Twilight 5:18 AM EDT 9:34 PM EDT
Astronomical Twilight 4:41 AM EDT 10:11 PM EDT
Moon 1:15 PM EDT (7/15) 12:05 AM EDT (7/15)
Length of Visible Light 15h 06m
Length of Day
14h 09m
Waxing Crescent, 45% of the Moon is Illuminated
Jul 15
Waxing Crescent
Jul 15
First Quarter
Jul 22
Full
Jul 29
Last Quarter
Aug 6
New

Hourly Weather History & Observations

Time (EDT) Temp. Heat Index Dew Point Humidity Pressure Visibility Wind Dir Wind Speed Gust Speed Precip Events Conditions
12:15 AM 77.0 °F - 77.0 °F 100% 30.24 in 10.0 mi North - - N/A   Clear
12:35 AM 77.0 °F - 77.0 °F 100% 30.24 in 10.0 mi North - - N/A   Clear
12:55 AM 77.0 °F - 77.0 °F 100% 30.23 in 10.0 mi North - - N/A   Clear
1:15 AM 77.0 °F - 77.0 °F 100% 30.23 in 10.0 mi North - - N/A   Clear
1:35 AM 77.0 °F - 77.0 °F 100% 30.23 in 10.0 mi North - - N/A   Clear
1:55 AM 77.0 °F - 77.0 °F 100% 30.23 in 10.0 mi North - - N/A   Clear
2:15 AM 77.0 °F - 77.0 °F 100% 30.23 in 10.0 mi North - - N/A   Clear
2:35 AM 77.0 °F - 77.0 °F 100% 30.23 in 10.0 mi North - - N/A   Clear
2:55 AM 77.0 °F - 77.0 °F 100% 30.23 in 10.0 mi North - - N/A   Clear
3:15 AM 77.0 °F - 77.0 °F 100% 30.23 in 10.0 mi North - - N/A   Clear
3:35 AM 77.0 °F - 77.0 °F 100% 30.22 in 7.0 mi North - - N/A   Scattered Clouds
3:55 AM 77.0 °F - 77.0 °F 100% 30.23 in 7.0 mi North - - N/A   Mostly Cloudy
4:15 AM 77.0 °F - 77.0 °F 100% 30.22 in 7.0 mi North - - N/A   Overcast
4:35 AM 77.0 °F - 77.0 °F 100% 30.23 in 7.0 mi North - - N/A   Overcast
4:55 AM 77.0 °F - 77.0 °F 100% 30.23 in 7.0 mi North - - N/A   Overcast
5:15 AM 77.0 °F - 77.0 °F 100% 30.23 in 7.0 mi North - - N/A   Overcast
5:35 AM 77.0 °F - 77.0 °F 100% 30.23 in 7.0 mi North - - N/A   Overcast
5:55 AM 77.0 °F - 77.0 °F 100% 30.24 in 7.0 mi North - - N/A   Overcast
6:15 AM 77.0 °F - 77.0 °F 100% 30.23 in 7.0 mi North - - N/A   Overcast
6:35 AM 77.0 °F - 77.0 °F 100% 30.24 in 10.0 mi North - - N/A   Overcast
6:55 AM 77.0 °F - 77.0 °F 100% 30.24 in 7.0 mi North - - N/A   Overcast
7:15 AM 77.0 °F - 77.0 °F 100% 30.25 in 7.0 mi North - - N/A   Overcast
7:35 AM 78.8 °F - 78.8 °F 100% 30.25 in 7.0 mi North - - N/A   Overcast
7:55 AM 78.8 °F - 78.8 °F 100% 30.26 in 10.0 mi North - - N/A   Overcast
8:15 AM 78.8 °F - 78.8 °F 100% 30.26 in 10.0 mi North - - N/A   Overcast
8:35 AM 80.6 °F 89.3 °F 80.6 °F 100% 30.26 in 10.0 mi North - - N/A   Overcast
8:55 AM 80.6 °F 89.3 °F 80.6 °F 100% 30.26 in 10.0 mi North - - N/A   Mostly Cloudy
9:15 AM 80.6 °F 89.3 °F 80.6 °F 100% 30.26 in 10.0 mi North - - N/A   Mostly Cloudy
9:35 AM 82.4 °F 96.1 °F 82.4 °F 100% 30.26 in 10.0 mi North - - N/A   Overcast
9:55 AM 82.4 °F 96.1 °F 82.4 °F 100% 30.26 in 10.0 mi North - - N/A   Mostly Cloudy
10:15 AM 82.4 °F 96.1 °F 82.4 °F 100% 30.26 in 10.0 mi North - - N/A   Overcast
10:35 AM 82.4 °F 96.1 °F 82.4 °F 100% 30.26 in 10.0 mi North - - N/A   Overcast
10:55 AM 86.0 °F 101.9 °F 80.6 °F 84% 30.26 in 7.0 mi North - - N/A   Mostly Cloudy
11:15 AM 86.0 °F 101.9 °F 80.6 °F 84% 30.26 in 7.0 mi North - - N/A   Mostly Cloudy
11:35 AM 86.0 °F 101.9 °F 80.6 °F 84% 30.27 in 5.0 mi North - - N/A   Mostly Cloudy
11:55 AM 86.0 °F 101.9 °F 80.6 °F 84% 30.26 in 10.0 mi North - - N/A   Scattered Clouds
12:15 PM 87.8 °F 104.9 °F 80.6 °F 79% 30.26 in 10.0 mi North - - N/A   Scattered Clouds
12:35 PM 86.0 °F 101.9 °F 80.6 °F 84% 30.26 in 7.0 mi North - - N/A   Scattered Clouds
12:55 PM 86.0 °F 104.7 °F 82.4 °F 89% 30.26 in 10.0 mi North - - N/A   Mostly Cloudy
1:15 PM 87.8 °F 104.9 °F 80.6 °F 79% 30.25 in 10.0 mi North - - N/A   Scattered Clouds
1:35 PM 87.8 °F 104.9 °F 80.6 °F 79% 30.24 in 10.0 mi North - - N/A   Mostly Cloudy
1:55 PM 87.8 °F 104.9 °F 80.6 °F 79% 30.23 in 10.0 mi North - - N/A   Mostly Cloudy
2:15 PM 89.6 °F 108.2 °F 80.6 °F 75% 30.23 in 10.0 mi North - - N/A   Scattered Clouds
2:35 PM 91.4 °F 111.0 °F 80.6 °F 71% 30.23 in 10.0 mi North - - N/A   Scattered Clouds
2:55 PM 89.6 °F - - N/A% 30.23 in 10.0 mi North - - N/A Thunderstorm Mostly Cloudy
3:35 PM 87.8 °F - 42.8 °F 21% 30.22 in 10.0 mi North - - N/A   Scattered Clouds
3:55 PM 82.4 °F - 41.0 °F 23% 30.23 in 10.0 mi North - - N/A   Mostly Cloudy
4:15 PM 89.6 °F 93.4 °F 68.0 °F 49% 30.22 in 10.0 mi North - - N/A   Scattered Clouds
4:35 PM 89.6 °F 94.7 °F 69.8 °F 52% 30.21 in 10.0 mi North - - N/A Thunderstorm Clear
4:55 PM 87.8 °F 86.5 °F 57.2 °F 35% 30.23 in 10.0 mi North - - N/A   Scattered Clouds
5:15 PM 89.6 °F - 51.8 °F 27% 30.21 in 10.0 mi North - - N/A   Mostly Cloudy
5:35 PM 89.6 °F 89.5 °F 60.8 °F 38% 30.21 in 10.0 mi North - - N/A   Scattered Clouds
5:55 PM 87.8 °F 91.4 °F 68.0 °F 52% 30.21 in 10.0 mi North - - N/A   Scattered Clouds
6:15 PM 87.8 °F 92.6 °F 69.8 °F 55% 30.21 in 10.0 mi North - - N/A   Clear
6:35 PM 87.8 °F 89.4 °F 64.4 °F 46% 30.22 in 10.0 mi North - - N/A   Scattered Clouds
6:55 PM 86.0 °F 90.4 °F 69.8 °F 58% 30.22 in 10.0 mi North - - N/A   Scattered Clouds
7:15 PM 86.0 °F 86.1 °F 60.8 °F 43% 30.23 in 10.0 mi North - - N/A   Clear
7:35 PM 86.0 °F 87.3 °F 64.4 °F 48% 30.23 in 10.0 mi North - - N/A   Clear
7:55 PM 82.4 °F 85.4 °F 68.0 °F 62% 30.23 in 10.0 mi North - - N/A   Clear
8:15 PM 82.4 °F 85.4 °F 68.0 °F 62% 30.24 in 10.0 mi North - - N/A   Clear
8:35 PM 80.6 °F 86.2 °F 75.2 °F 84% 30.24 in 10.0 mi North - - N/A   Clear
8:55 PM 78.8 °F - 77.0 °F 94% 30.24 in 10.0 mi North - - N/A   Clear
9:15 PM 78.8 °F - 71.6 °F 78% 30.24 in 10.0 mi North - - N/A   Clear
9:35 PM 77.0 °F - 69.8 °F 78% 30.25 in 7.0 mi North - - N/A   Clear
9:55 PM 77.0 °F - 62.6 °F 61% 30.26 in 10.0 mi North - - N/A   Clear
10:15 PM 77.0 °F - 62.6 °F 61% 30.26 in 10.0 mi North - - N/A   Clear
10:35 PM 77.0 °F - 59.0 °F 54% 30.27 in 10.0 mi North - - N/A   Clear
10:55 PM 77.0 °F - 71.6 °F 83% 30.27 in 10.0 mi North - - N/A   Clear
11:15 PM 77.0 °F - 69.8 °F 78% 30.27 in 10.0 mi North - - N/A   Clear
11:35 PM 75.2 °F - 71.6 °F 89% 30.27 in 10.0 mi North - - N/A   Clear
11:55 PM 75.2 °F - 71.6 °F 89% 30.27 in 10.0 mi North - - N/A   Clear